DELTA 1 DEB, 7136

Orbit data source: Space-Track

DELTA 1 DEB, 7136 is space debris in SSO originally from a launch on Tue, 06 Nov 1973 UTC launched from the Air Force Western Test Range (AFWTR). Debris objects in space refer to the collection of defunct objects orbiting the Earth. Examples of debris include non-operational satellites, rocket bodies, and fragments generated from explosions, collisions, or faulty payload assembly.

Loading next visibility...
Identifier
7136, 1973-086DA
Orbit
SSO
Country
Flag of USUS
Related business
Manufacturer
Unknown
Mission
Spacecraft
Bus & Motor
Unknown
Mass
Unknown
Launch date (UTC)
1973-11-06 (52 years ago)
Launch vehicle
Unknown
Launch site
Air Force Western Test Range (AFWTR)
Object type
Payload
Rocket body
Debris
Shape & HBR
Unknown shape, 0.1 m
Radar Cross Section
Small (<0.1 m²)

Expand to show TLE details & history
Last TLE update: 2 days ago

TLE from 2 days ago
0 DELTA 1 DEB
1  7136U 73086DA  25353.90382557  .00000169  00000-0  13225-2 0  9999
2  7136 101.5816 331.0549 0045399  68.5208 348.6903 12.53888548379021
Epoch: 2025-12-19T21:41Z
TLE epoch observation values (Epoch: 2025-12-19T21:41:30.529Z)
Latitude
55.44113°
Longitude
-100.28162°
Altitude
1,422.438 km
Speed
7.171 km/s
True Right ascension
20h 55m 20s
True Declination
55° 17' 38"
Sunlit
Object was in daylight at epoch
Visualization orbit readout
Latitude
Unknown
Longitude
Unknown
Altitude
Unknown
Speed
Unknown
Apparent Right ascension
Unknown
Apparent Declination
Unknown
Sunlit
N/A
Visualization observer readout
Local Sidereal Time
14:43:57
Azimuth
Unknown
Elevation
Unknown
Doppler factor
Unknown
Orbital elements
Apogee altitude
1,481.324 km
Perigee altitude
1,410.284 km
Semi-major axis
7,823.941 km
Eccentricity
0.00454
Inclination
101.5816°
RAAN
331.0549°
Arg. of periapsis
68.5208°
True anomaly
348.58771°
Mean anomaly
348.6903°
Eccentric anomaly
348.63906°
Mean motion
3.13621 °/min
Orbital period
114.79 mins
BSTAR
0.0013225
Loading maneuver chart data...
Computing Atmospheric mass density...
Loading historical data...
Loading historical data...
Loading historical data...
Loading historical data...
Loading historical data...
Loading historical data...
Loading historical data...

Documentation

Showing up to 5 results
|